DW8004 Weather Reports


time (UTC)temp
C
wind
direction
speed
KPH
gust
KPH
rain 1hr
cm
rain 24hr
cm
rain mn
cm
humidity
%
barometer
mb
20260905104549 10 93 0.0 0.0 0.00 0.00 0.00 97 1009.4
20260905103032 10 93 0.0 0.0 0.00 0.00 0.00 97 1009.2
20260905101612 10 93 0.0 0.0 0.00 0.00 0.00 97 1009.1
20260905100055 10 93 0.0 0.0 0.00 0.00 0.00 97 1009.1
20260905094606 10 93 0.0 0.0 0.00 0.00 0.00 97 1008.9
20260905093043 10 93 0.0 0.0 0.00 0.00 0.00 97 1009.0
20260905091526 10 94 0.0 0.0 0.00 0.00 0.00 97 1009.0
20260905090104 10 93 0.0 0.0 0.00 0.00 0.00 97 1009.0
20260905084611 11 93 0.0 0.0 0.00 0.00 0.00 97 1008.9
20260905083044 11 93 0.0 0.0 0.00 0.00 0.00 97 1008.9
20260905081527 11 93 0.0 0.0 0.00 0.00 0.00 97 1008.9
20260905080002 11 93 0.0 0.0 0.00 0.00 0.00 96 1008.8
20260905074554 11 93 0.0 0.0 0.00 0.00 0.00 96 1008.9
20260905073102 11 93 0.0 0.0 0.00 0.00 0.00 96 1009.1
20260905071559 11 93 0.0 0.0 0.00 0.00 0.00 96 1009.2
20260905070043 11 93 0.0 0.0 0.00 0.00 0.00 96 1009.2
20260905064530 12 93 0.0 0.0 0.00 0.00 0.00 96 1009.3
20260905063006 12 93 0.0 0.0 0.00 0.00 0.00 96 1009.1
20260905061614 12 93 0.0 0.0 0.00 0.00 0.00 96 1009.2
20260905060042 12 93 0.0 0.0 0.00 0.00 0.00 96 1009.2
20260905054559 12 93 0.0 0.0 0.00 0.00 0.00 96 1009.3
20260905053054 12 93 0.0 0.0 0.00 0.00 0.00 95 1009.3
20260905051552 12 93 0.0 0.0 0.00 0.00 0.00 95 1009.5
20260905050044 12 93 0.0 0.0 0.00 0.00 0.00 95 1009.5
20260905044536 13 93 0.0 0.0 0.00 0.00 0.00 95 1009.4
20260905043118 13 93 0.0 0.0 0.00 0.00 0.00 95 1009.7
20260905041546 13 93 0.0 0.0 0.00 0.00 0.00 95 1009.6
20260905040140 13 93 0.0 0.0 0.00 0.00 0.00 95 1009.4
20260905034526 13 93 0.0 0.0 0.00 0.00 0.00 94 1009.4
20260905033007 13 93 0.0 0.0 0.00 0.00 0.00 94 1009.7
20260905031529 13 93 0.0 0.0 0.00 0.00 0.00 94 1009.7
20260905030033 13 93 0.0 0.0 0.00 0.00 0.00 94 1009.6
20260905024504 14 93 0.0 0.0 0.00 0.00 0.00 93 1009.4
20260905023113 15 93 0.0 0.0 0.00 0.00 0.00 92 1009.7
20260905021554 15 93 0.0 0.0 0.00 0.00 0.00 92 1009.7
20260905020059 15 93 0.0 0.0 0.00 0.00 0.00 91 1009.9
20260905014552 15 93 0.0 0.0 0.00 0.00 0.00 91 1009.9
20260905013058 16 93 0.0 0.0 0.00 0.00 0.00 91 1009.9
20260905011538 16 93 0.0 0.0 0.00 0.00 0.00 90 1009.6
20260905010051 16 91 0.0 0.0 0.00 0.00 0.00 89 1009.5
20260905004547 16 95 0.0 0.0 0.00 0.00 0.00 90 1009.4
20260905003101 16 95 0.0 0.0 0.00 0.00 0.00 90 1009.3
20260905001555 16 95 0.0 0.0 0.00 0.00 0.00 89 1009.5
20260905000051 16 95 0.0 0.0 0.00 0.00 0.00 88 1009.4
20260904234550 17 95 0.0 0.0 0.00 0.00 0.00 88 1009.3
20260904233037 17 95 0.0 0.0 0.00 0.00 0.00 86 1009.1
20260904231543 17 95 0.0 0.0 0.00 0.00 0.00 84 1008.9
20260904230033 18 95 0.0 0.0 0.00 0.00 0.00 82 1008.9
20260904224538 19 95 0.0 0.0 0.00 0.00 0.00 79 1008.8
20260904223133 20 94 0.0 0.0 0.00 0.00 0.00 76 1008.7
20260904221527 21 218 0.0 0.0 0.00 0.00 0.00 72 1008.6
20260904220117 22 329 0.0 0.0 0.00 0.00 0.00 67 1008.5
20260904214554 22 208 0.0 0.0 0.00 0.00 0.00 65 1008.6
20260904213047 22 238 0.0 0.0 0.00 0.00 0.00 63 1008.8
20260904211545 22 224 0.0 0.0 0.00 0.00 0.00 65 1008.7
20260904210049 23 197 0.0 0.0 0.00 0.00 0.00 62 1008.7
20260904204540 22 190 0.0 0.0 0.00 0.00 0.00 64 1008.8
20260904203054 22 13 0.0 0.0 0.00 0.00 0.00 63 1008.7
20260904201546 22 240 0.0 0.0 0.00 0.00 0.00 65 1008.8
20260904200014 22 246 0.0 0.0 0.00 0.00 0.00 64 1008.6
20260904194536 23 211 0.0 0.0 0.00 0.00 0.00 63 1009.0
20260904193047 22 208 0.0 0.0 0.00 0.00 0.00 64 1009.0
20260904191549 22 298 0.0 0.0 0.00 0.00 0.00 68 1009.2
20260904190017 22 220 0.0 0.0 0.00 0.00 0.00 67 1009.1
20260904184549 23 226 0.0 0.0 0.00 0.00 0.00 64 1009.3
20260904183017 23 219 0.0 0.0 0.00 0.00 0.00 64 1009.3
20260904181553 22 213 0.0 0.0 0.00 0.00 0.00 67 1009.5
20260904180109 22 232 0.0 0.0 0.00 0.00 0.00 65 1009.7
20260904174613 22 254 0.0 0.0 0.00 0.00 0.00 65 1009.5
20260904173038 22 216 0.0 0.0 0.00 0.00 0.00 65 1009.5
20260904171526 22 157 0.0 0.0 0.00 0.00 0.00 66 1009.7
20260904170014 22 84 0.0 0.0 0.00 0.00 0.00 66 1009.9
20260904164502 22 263 0.0 0.0 0.00 0.00 0.00 65 1009.8
20260904163026 22 180 0.0 0.0 0.00 0.00 0.00 64 1009.8
20260904161530 22 301 0.0 0.0 0.00 0.00 0.00 65 1010.0
20260904160054 21 206 0.0 0.0 0.00 0.00 0.00 67 1010.0
20260904154550 21 257 0.0 0.0 0.00 0.00 0.00 68 1010.3
20260904153050 21 223 0.0 0.0 0.00 0.00 0.00 69 1010.1
20260904151540 21 219 0.0 0.0 0.00 0.00 0.00 72 1010.3
20260904150051 21 66 0.0 0.0 0.00 0.00 0.00 73 1010.5
20260904144632 21 236 0.0 0.0 0.00 0.00 0.00 72 1010.3
20260904143102 21 205 0.0 0.0 0.00 0.00 0.00 74 1010.4
20260904141555 20 153 0.0 0.0 0.00 0.00 0.00 77 1010.5
20260904140058 20 215 0.0 0.0 0.00 0.00 0.00 82 1010.5
20260904134549 19 232 0.0 0.0 0.00 0.00 0.00 83 1010.5
20260904133038 19 252 0.0 0.0 0.00 0.00 0.00 84 1010.8
20260904131540 18 213 0.0 0.0 0.00 0.00 0.00 86 1010.7
20260904130046 18 9 0.0 0.0 0.00 0.00 0.00 90 1010.7
20260904124535 18 207 0.0 0.0 0.00 0.00 0.00 94 1010.6
20260904123045 17 200 0.0 0.0 0.00 0.00 0.00 97 1010.6
20260904121517 16 200 0.0 0.0 0.00 0.00 0.00 98 1010.5
20260904120048 15 200 0.0 0.0 0.00 0.00 0.00 98 1010.4
20260904114544 13 200 0.0 0.0 0.00 0.00 0.00 98 1010.3
20260904113049 12 200 0.0 0.0 0.00 0.00 0.00 98 1010.3
20260904111555 12 200 0.0 0.0 0.00 0.00 0.00 97 1010.3